Time,TemperatureF,DewpointF,PressureIn,WindDirection,WindDirectionDegrees,WindSpeedMPH,WindSpeedGustMPH,Humidity,HourlyPrecipIn,Conditions,Clouds,dailyrainin,SoftwareType,DateUTC
2013-07-13 00:05:00,76.4,64.6,29.89,SSE,168,3.0,5.0,67,0.00,,,0.00,Wunderground v.1.15,2013-07-13 05:05:00,
2013-07-13 00:10:00,76.4,64.6,29.89,South,176,3.0,3.0,67,0.00,,,0.00,Wunderground v.1.15,2013-07-13 05:10:00,
2013-07-13 00:20:00,76.4,64.6,29.89,South,184,4.0,4.0,67,0.00,,,0.00,Wunderground v.1.15,2013-07-13 05:20:00,
2013-07-13 00:25:00,76.4,64.6,29.88,South,171,3.0,4.0,67,0.00,,,0.00,Wunderground v.1.15,2013-07-13 05:25:00,
2013-07-13 00:35:00,76.4,64.6,29.88,South,174,3.0,3.0,67,0.00,,,0.00,Wunderground v.1.15,2013-07-13 05:35:00,
2013-07-13 00:40:00,76.4,64.6,29.88,South,174,3.0,3.0,67,0.00,,,0.00,Wunderground v.1.15,2013-07-13 05:40:00,
2013-07-13 00:50:00,76.4,64.6,29.87,SE,126,4.0,9.0,67,0.00,,,0.00,Wunderground v.1.15,2013-07-13 05:50:00,
2013-07-13 00:55:00,76.5,64.3,29.88,South,187,5.0,9.0,66,0.00,,,0.00,Wunderground v.1.15,2013-07-13 05:55:00,
2013-07-13 01:05:00,76.7,65.3,29.92,SW,218,6.0,6.0,68,0.00,,,0.01,Wunderground v.1.15,2013-07-13 06:05:00,
2013-07-13 01:15:00,73.7,66.4,29.90,South,172,3.0,5.0,78,0.17,,,0.10,Wunderground v.1.15,2013-07-13 06:15:00,
2013-07-13 01:25:00,71.4,66.3,29.91,SSE,166,1.0,1.0,84,0.76,,,0.20,Wunderground v.1.15,2013-07-13 06:25:00,
2013-07-13 01:30:00,70.3,66.2,29.90,SSE,158,2.0,2.0,87,0.31,,,0.23,Wunderground v.1.15,2013-07-13 06:30:00,
2013-07-13 01:35:00,69.8,66.1,29.90,SSE,148,1.0,2.0,88,0.16,,,0.24,Wunderground v.1.15,2013-07-13 06:35:00,
2013-07-13 01:45:00,69.3,66.2,29.89,SE,145,2.0,8.0,90,0.91,,,0.32,Wunderground v.1.15,2013-07-13 06:45:00,
2013-07-13 01:50:00,69.0,66.3,29.89,SE,145,2.0,2.0,91,0.12,,,0.33,Wunderground v.1.15,2013-07-13 06:50:00,
2013-07-13 01:55:00,69.2,66.1,29.89,SE,130,3.0,7.0,90,0.12,,,0.34,Wunderground v.1.15,2013-07-13 06:55:00,
2013-07-13 02:05:00,69.3,66.2,29.89,SSE,150,3.0,7.0,90,0.04,,,0.34,Wunderground v.1.15,2013-07-13 07:05:00,
2013-07-13 02:15:00,69.4,66.0,29.88,SSE,156,2.0,3.0,89,0.00,,,0.34,Wunderground v.1.15,2013-07-13 07:15:00,
2013-07-13 02:20:00,69.5,66.1,29.89,SE,143,3.0,3.0,89,0.00,,,0.34,Wunderground v.1.15,2013-07-13 07:20:00,
2013-07-13 02:30:00,69.4,66.0,29.89,SSE,149,2.0,2.0,89,0.00,,,0.34,Wunderground v.1.15,2013-07-13 07:30:00,
2013-07-13 02:40:00,69.5,66.1,29.89,SSW,193,1.0,1.0,89,0.00,,,0.34,Wunderground v.1.15,2013-07-13 07:40:00,
2013-07-13 02:45:00,69.5,66.1,29.89,South,174,1.0,1.0,89,0.00,,,0.34,Wunderground v.1.15,2013-07-13 07:45:00,
2013-07-13 02:50:00,69.6,66.2,29.89,South,171,0.0,0.0,89,0.00,,,0.34,Wunderground v.1.15,2013-07-13 07:50:00,
2013-07-13 03:00:00,70.0,66.3,29.89,SE,139,1.0,1.0,88,0.00,,,0.34,Wunderground v.1.15,2013-07-13 08:00:00,
2013-07-13 03:05:00,70.1,66.0,29.89,SSE,154,1.0,1.0,87,0.00,,,0.34,Wunderground v.1.15,2013-07-13 08:05:00,
2013-07-13 03:15:00,70.0,66.0,29.89,SE,135,1.0,2.0,87,0.00,,,0.34,Wunderground v.1.15,2013-07-13 08:15:00,
2013-07-13 03:25:00,69.6,65.9,29.89,SE,131,1.0,1.0,88,0.00,,,0.34,Wunderground v.1.15,2013-07-13 08:25:00,
2013-07-13 03:30:00,69.4,66.0,29.90,ESE,116,1.0,1.0,89,0.00,,,0.34,Wunderground v.1.15,2013-07-13 08:30:00,
2013-07-13 03:35:00,69.3,65.9,29.90,SE,135,2.0,5.0,89,0.00,,,0.34,Wunderground v.1.15,2013-07-13 08:35:00,
2013-07-13 03:40:00,69.2,65.8,29.90,ESE,110,3.0,4.0,89,0.00,,,0.34,Wunderground v.1.15,2013-07-13 08:40:00,
2013-07-13 03:50:00,69.3,65.9,29.90,SE,129,4.0,4.0,89,0.00,,,0.34,Wunderground v.1.15,2013-07-13 08:50:00,
2013-07-13 03:55:00,69.3,65.6,29.89,SE,126,3.0,4.0,88,0.00,,,0.34,Wunderground v.1.15,2013-07-13 08:55:00,
2013-07-13 04:00:00,69.2,65.5,29.89,ESE,122,3.0,3.0,88,0.00,,,0.34,Wunderground v.1.15,2013-07-13 09:00:00,
2013-07-13 04:05:00,69.2,65.5,29.90,SE,131,3.0,3.0,88,0.00,,,0.34,Wunderground v.1.15,2013-07-13 09:05:00,
2013-07-13 04:15:00,69.4,65.7,29.91,East,80,3.0,7.0,88,0.00,,,0.34,Wunderground v.1.15,2013-07-13 09:15:00,
2013-07-13 04:20:00,69.4,65.7,29.91,East,86,4.0,7.0,88,0.00,,,0.34,Wunderground v.1.15,2013-07-13 09:20:00,
2013-07-13 04:25:00,69.3,65.6,29.91,ENE,70,4.0,7.0,88,0.00,,,0.34,Wunderground v.1.15,2013-07-13 09:25:00,
2013-07-13 04:30:00,69.2,65.5,29.91,ESE,108,4.0,5.0,88,0.00,,,0.34,Wunderground v.1.15,2013-07-13 09:30:00,
2013-07-13 04:40:00,68.9,65.5,29.92,East,79,3.0,5.0,89,0.00,,,0.34,Wunderground v.1.15,2013-07-13 09:40:00,
2013-07-13 04:45:00,68.9,65.5,29.92,ENE,77,4.0,5.0,89,0.00,,,0.34,Wunderground v.1.15,2013-07-13 09:45:00,
2013-07-13 04:50:00,68.8,65.4,29.92,ESE,108,5.0,5.0,89,0.00,,,0.34,Wunderground v.1.15,2013-07-13 09:50:00,
2013-07-13 05:00:00,68.6,65.2,29.93,ESE,105,4.0,4.0,89,0.00,,,0.34,Wunderground v.1.15,2013-07-13 10:00:00,
2013-07-13 05:05:00,68.6,65.2,29.93,ESE,118,5.0,5.0,89,0.00,,,0.34,Wunderground v.1.15,2013-07-13 10:05:00,
2013-07-13 05:15:00,68.5,65.1,29.93,East,99,6.0,6.0,89,0.00,,,0.34,Wunderground v.1.15,2013-07-13 10:15:00,
2013-07-13 05:20:00,68.4,65.0,29.93,East,84,5.0,5.0,89,0.00,,,0.34,Wunderground v.1.15,2013-07-13 10:20:00,
2013-07-13 05:25:00,68.4,65.0,29.93,SSE,164,4.0,5.0,89,0.00,,,0.34,Wunderground v.1.15,2013-07-13 10:25:00,
2013-07-13 05:35:00,68.3,64.9,29.92,SE,127,4.0,6.0,89,0.00,,,0.34,Wunderground v.1.15,2013-07-13 10:35:00,
2013-07-13 05:40:00,68.3,64.9,29.92,ESE,121,4.0,4.0,89,0.00,,,0.34,Wunderground v.1.15,2013-07-13 10:40:00,
2013-07-13 05:50:00,68.1,64.7,29.92,SE,142,4.0,4.0,89,0.00,,,0.34,Wunderground v.1.15,2013-07-13 10:50:00,
2013-07-13 05:55:00,68.0,64.6,29.92,SE,135,4.0,7.0,89,0.00,,,0.34,Wunderground v.1.15,2013-07-13 10:55:00,
2013-07-13 06:00:00,67.9,64.5,29.92,ESE,122,4.0,4.0,89,0.00,,,0.34,Wunderground v.1.15,2013-07-13 11:00:00,
2013-07-13 06:05:00,67.9,64.9,29.93,ESE,118,4.0,4.0,90,0.00,,,0.34,Wunderground v.1.15,2013-07-13 11:05:00,
2013-07-13 06:15:00,67.9,64.9,29.94,ESE,108,5.0,5.0,90,0.00,,,0.34,Wunderground v.1.15,2013-07-13 11:15:00,
2013-07-13 06:20:00,67.9,64.9,29.94,ESE,116,5.0,5.0,90,0.00,,,0.34,Wunderground v.1.15,2013-07-13 11:20:00,
2013-07-13 06:25:00,67.9,64.9,29.95,NE,56,5.0,7.0,90,0.00,,,0.34,Wunderground v.1.15,2013-07-13 11:25:00,
2013-07-13 06:30:00,67.9,64.5,29.95,ESE,102,5.0,10.0,89,0.00,,,0.34,Wunderground v.1.15,2013-07-13 11:30:00,
2013-07-13 06:35:00,68.0,64.6,29.95,SE,138,6.0,10.0,89,0.00,,,0.34,Wunderground v.1.15,2013-07-13 11:35:00,
2013-07-13 06:45:00,68.2,64.8,29.96,SE,127,6.0,15.0,89,0.00,,,0.34,Wunderground v.1.15,2013-07-13 11:45:00,
2013-07-13 06:50:00,68.2,64.8,29.96,ESE,121,6.0,6.0,89,0.00,,,0.34,Wunderground v.1.15,2013-07-13 11:50:00,
2013-07-13 07:00:00,68.1,64.7,29.96,ESE,112,6.0,7.0,89,0.00,,,0.34,Wunderground v.1.15,2013-07-13 12:00:00,
2013-07-13 07:05:00,68.1,64.7,29.96,ESE,120,6.0,7.0,89,0.00,,,0.34,Wunderground v.1.15,2013-07-13 12:05:00,
2013-07-13 07:15:00,68.0,65.0,29.97,ESE,116,6.0,7.0,90,0.00,,,0.34,Wunderground v.1.15,2013-07-13 12:15:00,
2013-07-13 07:20:00,68.0,65.0,29.97,ESE,115,6.0,6.0,90,0.00,,,0.34,Wunderground v.1.15,2013-07-13 12:20:00,
2013-07-13 07:30:00,67.9,64.9,29.98,SE,143,6.0,8.0,90,0.00,,,0.34,Wunderground v.1.15,2013-07-13 12:30:00,
2013-07-13 07:35:00,67.8,64.8,29.97,East,100,5.0,11.0,90,0.00,,,0.34,Wunderground v.1.15,2013-07-13 12:35:00,
2013-07-13 07:45:00,67.8,65.1,29.97,ESE,123,6.0,6.0,91,0.00,,,0.34,Wunderground v.1.15,2013-07-13 12:45:00,
2013-07-13 07:50:00,67.9,64.9,29.97,SE,133,5.0,5.0,90,0.00,,,0.34,Wunderground v.1.15,2013-07-13 12:50:00,
2013-07-13 08:00:00,68.3,64.6,29.97,SSE,162,4.0,5.0,88,0.00,,,0.34,Wunderground v.1.15,2013-07-13 13:00:00,
2013-07-13 08:05:00,68.4,64.7,29.97,SE,135,4.0,5.0,88,0.00,,,0.34,Wunderground v.1.15,2013-07-13 13:05:00,
2013-07-13 08:15:00,68.6,64.9,29.97,SE,141,4.0,5.0,88,0.00,,,0.34,Wunderground v.1.15,2013-07-13 13:15:00,
2013-07-13 08:20:00,68.7,65.0,29.97,SE,137,5.0,5.0,88,0.00,,,0.34,Wunderground v.1.15,2013-07-13 13:20:00,
2013-07-13 08:30:00,68.6,65.2,29.97,SE,143,5.0,5.0,89,0.00,,,0.34,Wunderground v.1.15,2013-07-13 13:30:00,
2013-07-13 08:35:00,68.5,64.8,29.97,SSE,154,3.0,5.0,88,0.00,,,0.34,Wunderground v.1.15,2013-07-13 13:35:00,
2013-07-13 08:40:00,68.5,65.1,29.97,SE,133,4.0,4.0,89,0.00,,,0.34,Wunderground v.1.15,2013-07-13 13:40:00,
2013-07-13 08:50:00,68.2,64.5,29.98,South,175,3.0,9.0,88,0.00,,,0.34,Wunderground v.1.15,2013-07-13 13:50:00,
2013-07-13 08:55:00,67.9,64.2,29.98,SE,144,3.0,9.0,88,0.00,,,0.34,Wunderground v.1.15,2013-07-13 13:55:00,
2013-07-13 09:00:00,67.7,64.3,29.97,SSW,196,4.0,4.0,89,0.00,,,0.34,Wunderground v.1.15,2013-07-13 14:00:00,
2013-07-13 09:05:00,67.6,64.2,29.97,SE,140,3.0,4.0,89,0.00,,,0.34,Wunderground v.1.15,2013-07-13 14:05:00,
2013-07-13 09:15:00,67.2,63.8,29.96,SSE,161,4.0,4.0,89,0.00,,,0.34,Wunderground v.1.15,2013-07-13 14:15:00,
2013-07-13 09:20:00,67.1,64.1,29.96,SSE,166,3.0,3.0,90,0.00,,,0.34,Wunderground v.1.15,2013-07-13 14:20:00,
2013-07-13 09:25:00,67.1,64.1,29.96,SE,129,4.0,6.0,90,0.00,,,0.34,Wunderground v.1.15,2013-07-13 14:25:00,
2013-07-13 09:35:00,67.1,64.1,29.97,South,184,3.0,4.0,90,0.00,,,0.34,Wunderground v.1.15,2013-07-13 14:35:00,
2013-07-13 09:40:00,67.0,64.0,29.97,SE,136,3.0,4.0,90,0.00,,,0.34,Wunderground v.1.15,2013-07-13 14:40:00,
2013-07-13 09:45:00,67.0,64.0,29.97,SSE,156,3.0,4.0,90,0.00,,,0.34,Wunderground v.1.15,2013-07-13 14:45:00,
2013-07-13 09:50:00,66.9,63.9,29.97,South,170,3.0,3.0,90,0.00,,,0.34,Wunderground v.1.15,2013-07-13 14:50:00,
2013-07-13 10:00:00,66.7,63.7,29.97,ESE,122,4.0,4.0,90,0.00,,,0.34,Wunderground v.1.15,2013-07-13 15:00:00,
2013-07-13 10:05:00,66.9,63.9,29.97,South,178,4.0,4.0,90,0.00,,,0.34,Wunderground v.1.15,2013-07-13 15:05:00,
2013-07-13 10:15:00,67.5,64.1,29.96,SSE,161,3.0,7.0,89,0.00,,,0.34,Wunderground v.1.15,2013-07-13 15:15:00,
2013-07-13 10:20:00,67.8,64.4,29.96,South,181,4.0,4.0,89,0.00,,,0.34,Wunderground v.1.15,2013-07-13 15:20:00,
2013-07-13 10:30:00,68.0,64.3,29.96,SE,124,3.0,3.0,88,0.00,,,0.34,Wunderground v.1.15,2013-07-13 15:30:00,
2013-07-13 10:35:00,68.0,64.3,29.96,SE,128,4.0,5.0,88,0.00,,,0.34,Wunderground v.1.15,2013-07-13 15:35:00,
2013-07-13 10:45:00,68.8,65.7,29.96,South,186,4.0,4.0,90,0.00,,,0.34,Wunderground v.1.15,2013-07-13 15:45:00,
2013-07-13 10:50:00,69.3,65.9,29.96,SSW,198,3.0,8.0,89,0.00,,,0.34,Wunderground v.1.15,2013-07-13 15:50:00,
2013-07-13 10:55:00,69.5,65.8,29.96,South,180,5.0,14.0,88,0.00,,,0.34,Wunderground v.1.15,2013-07-13 15:55:00,
2013-07-13 11:05:00,69.7,65.7,29.96,South,187,8.0,9.0,87,0.00,,,0.34,Wunderground v.1.15,2013-07-13 16:05:00,
2013-07-13 11:15:00,69.6,65.9,29.97,South,174,8.0,14.0,88,0.00,,,0.34,Wunderground v.1.15,2013-07-13 16:15:00,
2013-07-13 11:20:00,69.4,65.4,29.97,SSW,208,9.0,9.0,87,0.00,,,0.34,Wunderground v.1.15,2013-07-13 16:20:00,
2013-07-13 11:25:00,69.3,65.3,29.97,South,181,10.0,10.0,87,0.00,,,0.34,Wunderground v.1.15,2013-07-13 16:25:00,
2013-07-13 11:30:00,69.1,65.1,29.98,SSW,205,10.0,10.0,87,0.00,,,0.34,Wunderground v.1.15,2013-07-13 16:30:00,
2013-07-13 11:40:00,69.1,65.1,29.98,SSW,206,8.0,15.0,87,0.00,,,0.34,Wunderground v.1.15,2013-07-13 16:40:00,
2013-07-13 11:45:00,69.1,64.7,29.98,South,187,11.0,15.0,86,0.00,,,0.34,Wunderground v.1.15,2013-07-13 16:45:00,
2013-07-13 11:55:00,69.4,65.0,29.98,South,185,11.0,16.0,86,0.00,,,0.34,Wunderground v.1.15,2013-07-13 16:55:00,
2013-07-13 12:00:00,69.9,65.2,29.98,South,189,11.0,17.0,85,0.00,,,0.34,Wunderground v.1.15,2013-07-13 17:00:00,
2013-07-13 12:05:00,70.6,65.5,29.98,SSW,210,12.0,17.0,84,0.00,,,0.34,Wunderground v.1.15,2013-07-13 17:05:00,
2013-07-13 12:15:00,71.1,65.7,29.98,SSW,195,9.0,11.0,83,0.00,,,0.34,Wunderground v.1.15,2013-07-13 17:15:00,
2013-07-13 12:25:00,71.0,65.9,29.98,SSW,195,9.0,10.0,84,0.00,,,0.34,Wunderground v.1.15,2013-07-13 17:25:00,
2013-07-13 12:30:00,71.9,66.1,29.98,South,186,8.0,8.0,82,0.00,,,0.34,Wunderground v.1.15,2013-07-13 17:30:00,
2013-07-13 12:40:00,73.5,66.2,29.97,SW,214,8.0,10.0,78,0.00,,,0.34,Wunderground v.1.15,2013-07-13 17:40:00,
2013-07-13 12:45:00,73.7,66.0,29.97,South,189,9.0,10.0,77,0.00,,,0.34,Wunderground v.1.15,2013-07-13 17:45:00,
2013-07-13 12:50:00,73.9,66.2,29.95,SSW,193,8.0,8.0,77,0.00,,,0.34,Wunderground v.1.15,2013-07-13 17:50:00,
2013-07-13 13:00:00,74.5,67.2,29.96,SSW,199,5.0,5.0,78,0.00,,,0.34,Wunderground v.1.15,2013-07-13 18:00:00,
2013-07-13 13:05:00,74.6,66.9,29.95,SSW,195,4.0,9.0,77,0.00,,,0.34,Wunderground v.1.15,2013-07-13 18:05:00,
2013-07-13 13:15:00,74.4,67.1,29.94,SE,137,2.0,3.0,78,0.00,,,0.34,Wunderground v.1.15,2013-07-13 18:15:00,
2013-07-13 13:25:00,73.7,66.4,29.94,ESE,120,2.0,3.0,78,0.00,,,0.34,Wunderground v.1.15,2013-07-13 18:25:00,
2013-07-13 13:30:00,73.3,66.4,29.94,SE,145,3.0,3.0,79,0.00,,,0.34,Wunderground v.1.15,2013-07-13 18:30:00,
2013-07-13 13:35:00,73.4,66.9,29.94,SSE,166,2.0,3.0,80,0.00,,,0.34,Wunderground v.1.15,2013-07-13 18:35:00,
2013-07-13 13:45:00,72.9,66.7,29.96,South,186,3.0,8.0,81,0.00,,,0.34,Wunderground v.1.15,2013-07-13 18:45:00,
2013-07-13 13:55:00,72.4,66.9,29.95,SSE,164,4.0,4.0,83,0.00,,,0.34,Wunderground v.1.15,2013-07-13 18:55:00,
2013-07-13 14:00:00,72.1,67.0,29.95,SSE,149,5.0,5.0,84,0.00,,,0.34,Wunderground v.1.15,2013-07-13 19:00:00,
2013-07-13 14:05:00,71.9,66.8,29.96,South,178,4.0,10.0,84,0.00,,,0.34,Wunderground v.1.15,2013-07-13 19:05:00,
2013-07-13 14:15:00,71.2,66.1,29.96,South,190,7.0,10.0,84,0.00,,,0.34,Wunderground v.1.15,2013-07-13 19:15:00,
2013-07-13 14:20:00,70.9,66.2,29.97,South,174,5.0,5.0,85,0.00,,,0.34,Wunderground v.1.15,2013-07-13 19:20:00,
2013-07-13 14:30:00,70.4,65.7,29.98,SSW,196,7.0,10.0,85,0.00,,,0.34,Wunderground v.1.15,2013-07-13 19:30:00,
2013-07-13 14:35:00,70.3,65.9,29.98,SSW,195,8.0,10.0,86,0.00,,,0.34,Wunderground v.1.15,2013-07-13 19:35:00,
2013-07-13 14:45:00,70.1,66.4,29.98,South,191,5.0,7.0,88,0.00,,,0.34,Wunderground v.1.15,2013-07-13 19:45:00,
2013-07-13 14:50:00,69.5,66.1,29.96,SE,133,3.0,3.0,89,0.00,,,0.35,Wunderground v.1.15,2013-07-13 19:50:00,
2013-07-13 14:55:00,69.1,66.4,29.97,SSW,201,1.0,3.0,91,0.00,,,0.35,Wunderground v.1.15,2013-07-13 19:55:00,
2013-07-13 15:05:00,69.2,66.1,29.97,ESE,120,2.0,2.0,90,0.06,,,0.36,Wunderground v.1.15,2013-07-13 20:05:00,
2013-07-13 15:15:00,69.3,66.2,29.99,South,184,2.0,4.0,90,0.00,,,0.36,Wunderground v.1.15,2013-07-13 20:15:00,
2013-07-13 15:20:00,69.4,66.3,29.99,WNW,303,1.0,1.0,90,0.00,,,0.36,Wunderground v.1.15,2013-07-13 20:20:00,
2013-07-13 15:30:00,69.5,66.1,30.00,WSW,254,0.0,0.0,89,0.00,,,0.37,Wunderground v.1.15,2013-07-13 20:30:00,
2013-07-13 15:35:00,69.8,66.7,29.99,West,274,0.0,1.0,90,0.00,,,0.37,Wunderground v.1.15,2013-07-13 20:35:00,
2013-07-13 15:40:00,69.9,66.8,29.99,ESE,110,1.0,1.0,90,0.00,,,0.37,Wunderground v.1.15,2013-07-13 20:40:00,
2013-07-13 15:50:00,70.3,67.2,29.99,East,96,0.0,0.0,90,0.00,,,0.37,Wunderground v.1.15,2013-07-13 20:50:00,
2013-07-13 15:55:00,70.4,67.0,29.99,ESE,109,1.0,2.0,89,0.00,,,0.37,Wunderground v.1.15,2013-07-13 20:55:00,
2013-07-13 16:00:00,70.8,67.4,29.99,ESE,110,1.0,1.0,89,0.00,,,0.37,Wunderground v.1.15,2013-07-13 21:00:00,
2013-07-13 16:05:00,70.9,66.8,29.98,ESE,115,1.0,2.0,87,0.00,,,0.37,Wunderground v.1.15,2013-07-13 21:05:00,
2013-07-13 16:15:00,71.2,67.8,29.98,East,93,0.0,1.0,89,0.00,,,0.37,Wunderground v.1.15,2013-07-13 21:15:00,
2013-07-13 16:25:00,71.5,67.8,29.99,ESE,119,1.0,2.0,88,0.00,,,0.37,Wunderground v.1.15,2013-07-13 21:25:00,
2013-07-13 16:30:00,71.7,68.0,29.99,East,92,1.0,1.0,88,0.00,,,0.37,Wunderground v.1.15,2013-07-13 21:30:00,
2013-07-13 16:35:00,72.2,68.4,29.99,SE,124,1.0,1.0,88,0.00,,,0.37,Wunderground v.1.15,2013-07-13 21:35:00,
2013-07-13 16:45:00,73.0,68.6,29.99,ESE,119,2.0,2.0,86,0.00,,,0.37,Wunderground v.1.15,2013-07-13 21:45:00,
2013-07-13 16:50:00,73.3,68.9,29.99,ESE,122,1.0,2.0,86,0.00,,,0.37,Wunderground v.1.15,2013-07-13 21:50:00,
2013-07-13 16:55:00,73.4,69.0,29.99,ESE,105,1.0,2.0,86,0.00,,,0.37,Wunderground v.1.15,2013-07-13 21:55:00,
2013-07-13 17:05:00,74.0,68.9,29.99,SE,137,1.0,8.0,84,0.00,,,0.37,Wunderground v.1.15,2013-07-13 22:05:00,
2013-07-13 17:15:00,74.3,68.8,29.99,South,185,1.0,4.0,83,0.00,,,0.37,Wunderground v.1.15,2013-07-13 22:15:00,
2013-07-13 17:20:00,74.5,69.0,29.99,South,182,1.0,1.0,83,0.00,,,0.37,Wunderground v.1.15,2013-07-13 22:20:00,
2013-07-13 17:25:00,74.6,69.1,29.99,South,174,1.0,1.0,83,0.00,,,0.37,Wunderground v.1.15,2013-07-13 22:25:00,
2013-07-13 17:30:00,74.7,69.2,29.99,SSW,195,0.0,1.0,83,0.00,,,0.37,Wunderground v.1.15,2013-07-13 22:30:00,
2013-07-13 17:40:00,74.7,69.5,29.99,SE,137,0.0,0.0,84,0.00,,,0.37,Wunderground v.1.15,2013-07-13 22:40:00,
2013-07-13 17:45:00,74.8,69.6,29.98,SE,127,0.0,0.0,84,0.00,,,0.37,Wunderground v.1.15,2013-07-13 22:45:00,
2013-07-13 17:50:00,74.9,70.1,29.99,ESE,120,1.0,1.0,85,0.00,,,0.37,Wunderground v.1.15,2013-07-13 22:50:00,
2013-07-13 18:00:00,75.5,71.0,29.98,East,91,2.0,2.0,86,0.00,,,0.37,Wunderground v.1.15,2013-07-13 23:00:00,
2013-07-13 18:05:00,75.7,71.2,29.98,ESE,117,2.0,2.0,86,0.00,,,0.37,Wunderground v.1.15,2013-07-13 23:05:00,
2013-07-13 18:15:00,76.2,71.4,29.98,ESE,118,2.0,6.0,85,0.00,,,0.37,Wunderground v.1.15,2013-07-13 23:15:00,
2013-07-13 18:20:00,76.3,71.5,29.98,ESE,110,2.0,7.0,85,0.00,,,0.37,Wunderground v.1.15,2013-07-13 23:20:00,
2013-07-13 18:30:00,76.6,71.0,29.99,SE,129,3.0,3.0,83,0.00,,,0.37,Wunderground v.1.15,2013-07-13 23:30:00,
2013-07-13 18:35:00,76.9,71.3,29.98,ESE,106,2.0,7.0,83,0.00,,,0.37,Wunderground v.1.15,2013-07-13 23:35:00,
2013-07-13 18:45:00,76.8,71.2,29.99,ESE,120,3.0,3.0,83,0.00,,,0.37,Wunderground v.1.15,2013-07-13 23:45:00,
2013-07-13 18:50:00,76.6,71.0,29.99,SE,131,4.0,4.0,83,0.00,,,0.37,Wunderground v.1.15,2013-07-13 23:50:00,
2013-07-13 18:55:00,76.2,70.3,29.99,ESE,113,3.0,4.0,82,0.00,,,0.37,Wunderground v.1.15,2013-07-13 23:55:00,
2013-07-13 19:05:00,76.3,70.8,29.99,SE,125,3.0,3.0,83,0.00,,,0.37,Wunderground v.1.15,2013-07-14 00:05:00,
2013-07-13 19:15:00,76.1,70.6,29.98,ESE,111,3.0,3.0,83,0.00,,,0.37,Wunderground v.1.15,2013-07-14 00:15:00,
2013-07-13 19:20:00,76.2,70.3,29.98,East,81,3.0,5.0,82,0.00,,,0.37,Wunderground v.1.15,2013-07-14 00:20:00,
2013-07-13 19:25:00,76.0,69.7,29.98,ESE,112,4.0,5.0,81,0.00,,,0.37,Wunderground v.1.15,2013-07-14 00:25:00,
2013-07-13 19:35:00,75.8,69.2,29.98,SE,145,4.0,6.0,80,0.00,,,0.37,Wunderground v.1.15,2013-07-14 00:35:00,
2013-07-13 19:40:00,75.7,68.7,29.98,ESE,118,3.0,3.0,79,0.00,,,0.37,Wunderground v.1.15,2013-07-14 00:40:00,
2013-07-13 19:50:00,75.6,67.1,29.98,SSE,157,1.0,1.0,75,0.00,,,0.37,Wunderground v.1.15,2013-07-14 00:50:00,
2013-07-13 19:55:00,75.4,66.9,29.98,SE,135,2.0,2.0,75,0.00,,,0.37,Wunderground v.1.15,2013-07-14 00:55:00,
2013-07-13 20:00:00,75.1,67.0,29.98,ESE,116,2.0,2.0,76,0.00,,,0.37,Wunderground v.1.15,2013-07-14 01:00:00,
2013-07-13 20:05:00,74.9,66.8,29.98,ESE,114,3.0,3.0,76,0.00,,,0.37,Wunderground v.1.15,2013-07-14 01:05:00,
2013-07-13 20:15:00,74.5,66.8,29.98,SE,129,3.0,4.0,77,0.00,,,0.37,Wunderground v.1.15,2013-07-14 01:15:00,
2013-07-13 20:20:00,74.3,66.6,29.98,ESE,111,4.0,4.0,77,0.00,,,0.37,Wunderground v.1.15,2013-07-14 01:20:00,
2013-07-13 20:25:00,74.1,66.8,29.98,ESE,117,3.0,4.0,78,0.00,,,0.37,Wunderground v.1.15,2013-07-14 01:25:00,
2013-07-13 20:30:00,73.9,66.6,29.98,ESE,116,3.0,3.0,78,0.00,,,0.37,Wunderground v.1.15,2013-07-14 01:30:00,
2013-07-13 20:35:00,73.7,66.4,29.98,ESE,111,3.0,3.0,78,0.00,,,0.37,Wunderground v.1.15,2013-07-14 01:35:00,
2013-07-13 20:45:00,73.4,66.5,29.98,ESE,112,3.0,4.0,79,0.00,,,0.37,Wunderground v.1.15,2013-07-14 01:45:00,
2013-07-13 20:50:00,73.3,66.0,29.98,ESE,106,3.0,4.0,78,0.00,,,0.37,Wunderground v.1.15,2013-07-14 01:50:00,
2013-07-13 20:55:00,73.2,65.6,29.98,ESE,108,4.0,4.0,77,0.00,,,0.37,Wunderground v.1.15,2013-07-14 01:55:00,
2013-07-13 21:05:00,72.9,65.3,29.98,East,95,3.0,5.0,77,0.00,,,0.37,Wunderground v.1.15,2013-07-14 02:05:00,
2013-07-13 21:15:00,72.6,65.0,29.99,East,95,3.0,3.0,77,0.00,,,0.37,Wunderground v.1.15,2013-07-14 02:15:00,
2013-07-13 21:20:00,72.5,64.1,29.99,ESE,120,3.0,5.0,75,0.00,,,0.37,Wunderground v.1.15,2013-07-14 02:20:00,
2013-07-13 21:30:00,72.2,63.1,29.99,SE,125,3.0,4.0,73,0.00,,,0.37,Wunderground v.1.15,2013-07-14 02:30:00,
2013-07-13 21:35:00,72.1,63.4,29.99,ESE,105,3.0,7.0,74,0.00,,,0.37,Wunderground v.1.15,2013-07-14 02:35:00,
2013-07-13 21:45:00,71.7,63.4,29.99,SSE,153,3.0,3.0,75,0.00,,,0.37,Wunderground v.1.15,2013-07-14 02:45:00,
2013-07-13 21:50:00,71.5,63.2,29.99,ESE,115,3.0,3.0,75,0.00,,,0.37,Wunderground v.1.15,2013-07-14 02:50:00,
2013-07-13 21:55:00,71.2,63.2,30.00,SE,132,3.0,5.0,76,0.00,,,0.37,Wunderground v.1.15,2013-07-14 02:55:00,
2013-07-13 22:00:00,71.0,63.1,30.00,SE,131,3.0,3.0,76,0.00,,,0.37,Wunderground v.1.15,2013-07-14 03:00:00,
2013-07-13 22:05:00,70.8,62.9,30.00,ESE,123,3.0,3.0,76,0.00,,,0.37,Wunderground v.1.15,2013-07-14 03:05:00,
2013-07-13 22:10:00,70.7,62.8,30.01,ESE,112,3.0,3.0,76,0.00,,,0.37,Wunderground v.1.15,2013-07-14 03:10:00,
2013-07-13 22:20:00,70.4,62.5,30.01,ESE,112,2.0,2.0,76,0.00,,,0.37,Wunderground v.1.15,2013-07-14 03:20:00,
2013-07-13 22:25:00,70.3,62.4,30.01,ESE,111,3.0,3.0,76,0.00,,,0.37,Wunderground v.1.15,2013-07-14 03:25:00,
2013-07-13 22:30:00,70.1,62.6,30.02,SE,129,3.0,3.0,77,0.00,,,0.37,Wunderground v.1.15,2013-07-14 03:30:00,
2013-07-13 22:35:00,69.9,62.4,30.02,SE,126,3.0,3.0,77,0.00,,,0.37,Wunderground v.1.15,2013-07-14 03:35:00,
2013-07-13 22:40:00,69.7,62.2,30.03,SE,139,2.0,5.0,77,0.00,,,0.37,Wunderground v.1.15,2013-07-14 03:40:00,
2013-07-13 22:50:00,69.4,62.2,30.03,SE,135,2.0,2.0,78,0.00,,,0.37,Wunderground v.1.15,2013-07-14 03:50:00,
2013-07-13 22:55:00,69.3,62.1,30.03,ESE,118,2.0,2.0,78,0.00,,,0.37,Wunderground v.1.15,2013-07-14 03:55:00,
2013-07-13 23:05:00,69.0,62.2,30.04,SE,133,1.0,4.0,79,0.00,,,0.37,Wunderground v.1.15,2013-07-14 04:05:00,
2013-07-13 23:10:00,68.8,62.4,30.04,ESE,112,1.0,2.0,80,0.00,,,0.37,Wunderground v.1.15,2013-07-14 04:10:00,
2013-07-13 23:15:00,68.8,62.4,30.04,SE,126,2.0,2.0,80,0.00,,,0.37,Wunderground v.1.15,2013-07-14 04:15:00,
2013-07-13 23:20:00,68.6,62.2,30.03,ESE,113,2.0,3.0,80,0.00,,,0.37,Wunderground v.1.15,2013-07-14 04:20:00,
2013-07-13 23:30:00,68.5,62.4,30.04,SE,133,3.0,8.0,81,0.00,,,0.37,Wunderground v.1.15,2013-07-14 04:30:00,
2013-07-13 23:35:00,68.5,62.4,30.04,SE,134,2.0,8.0,81,0.00,,,0.37,Wunderground v.1.15,2013-07-14 04:35:00,
2013-07-13 23:40:00,68.5,62.4,30.04,SE,136,3.0,8.0,81,0.00,,,0.37,Wunderground v.1.15,2013-07-14 04:40:00,
2013-07-13 23:45:00,68.5,62.4,30.04,ESE,111,4.0,8.0,81,0.00,,,0.37,Wunderground v.1.15,2013-07-14 04:45:00,
2013-07-13 23:55:00,68.3,62.6,30.04,SE,141,4.0,4.0,82,0.00,,,0.37,Wunderground v.1.15,2013-07-14 04:55:00,